| time (UTC) | temp C | wind direction | speed KPH | gust KPH | rain 1hr cm | rain 24hr cm | rain mn cm | humidity % | barometer mb |
| 20260505122853 | 10 | 236 | 0.0 | 1.6 | 0.00 | 0.00 | 0.00 | 79 | 1022.5 |
| 20260505121854 | 10 | 236 | 0.0 | 3.2 | 0.00 | 0.00 | 0.00 | 78 | 1022.4 |
| 20260505121657 | 10 | 236 | 0.0 | 1.6 | 0.00 | 0.00 | 0.00 | 78 | 1022.4 |
| 20260505120855 | 10 | 236 | 0.0 | 1.6 | 0.00 | 0.00 | 0.00 | 78 | 1022.4 |
| 20260505115854 | 10 | 236 | 0.0 | 1.6 | 0.00 | 0.00 | 0.00 | 80 | 1022.3 |
| 20260505114855 | 10 | 236 | 0.0 | 1.6 | 0.00 | 0.00 | 0.00 | 81 | 1022.2 |
| 20260505113853 | 10 | 235 | 0.0 | 0.0 | 0.00 | 0.00 | 0.00 | 81 | 1022.2 |
| 20260505113656 | 10 | 236 | 0.0 | 1.6 | 0.00 | 0.00 | 0.00 | 81 | 1022.2 |
| 20260505112854 | 10 | 236 | 0.0 | 0.0 | 0.00 | 0.00 | 0.00 | 79 | 1022.1 |
| 20260505111855 | 10 | 236 | 0.0 | 0.0 | 0.00 | 0.00 | 0.00 | 78 | 1022.0 |
| 20260505110855 | 10 | 236 | 1.6 | 1.6 | 0.00 | 0.00 | 0.00 | 78 | 1022.0 |
| 20260505101853 | 11 | 235 | 0.0 | 1.6 | 0.00 | 0.00 | 0.00 | 76 | 1021.3 |
| 20260505100854 | 11 | 236 | 0.0 | 1.6 | 0.00 | 0.00 | 0.00 | 75 | 1021.2 |
| 20260505095855 | 11 | 236 | 0.0 | 0.0 | 0.00 | 0.00 | 0.00 | 75 | 1021.2 |
| 20260505095657 | 11 | 236 | 0.0 | 1.6 | 0.00 | 0.00 | 0.00 | 74 | 1021.2 |
| 20260505094853 | 11 | 236 | 0.0 | 1.6 | 0.00 | 0.00 | 0.00 | 73 | 1020.9 |
| 20260505093854 | 12 | 236 | 0.0 | 1.6 | 0.00 | 0.00 | 0.00 | 71 | 1020.8 |
| 20260505093656 | 12 | 236 | 0.0 | 1.6 | 0.00 | 0.00 | 0.00 | 71 | 1020.8 |
| 20260505092854 | 12 | 235 | 0.0 | 1.6 | 0.00 | 0.00 | 0.00 | 68 | 1020.7 |
| 20260505091854 | 12 | 252 | 0.0 | 1.6 | 0.00 | 0.00 | 0.00 | 69 | 1020.5 |
| 20260505091658 | 12 | 252 | 0.0 | 1.6 | 0.00 | 0.00 | 0.00 | 69 | 1020.5 |
| 20260505090854 | 12 | 227 | 0.0 | 1.6 | 0.00 | 0.00 | 0.00 | 68 | 1020.4 |
| 20260505085854 | 13 | 268 | 0.0 | 1.6 | 0.00 | 0.00 | 0.00 | 68 | 1020.2 |
| 20260505085657 | 13 | 233 | 0.0 | 0.0 | 0.00 | 0.00 | 0.00 | 68 | 1020.2 |
| 20260505084853 | 13 | 137 | 0.0 | 1.6 | 0.00 | 0.00 | 0.00 | 67 | 1020.1 |
| 20260505083854 | 13 | 154 | 1.6 | 9.7 | 0.00 | 0.00 | 0.00 | 66 | 1020.2 |
| 20260505083656 | 13 | 222 | 1.6 | 8.0 | 0.00 | 0.00 | 0.00 | 66 | 1020.1 |
| 20260505082854 | 13 | 272 | 0.0 | 3.2 | 0.00 | 0.00 | 0.00 | 66 | 1020.2 |
| 20260505081854 | 13 | 305 | 0.0 | 0.0 | 0.00 | 0.00 | 0.00 | 66 | 1020.1 |
| 20260505080854 | 14 | 156 | 0.0 | 0.0 | 0.00 | 0.00 | 0.00 | 64 | 1019.9 |
| 20260505075855 | 14 | 207 | 0.0 | 1.6 | 0.00 | 0.00 | 0.00 | 64 | 1019.8 |
| 20260505074854 | 15 | 257 | 0.0 | 0.0 | 0.00 | 0.00 | 0.00 | 63 | 1019.8 |
| 20260505073854 | 15 | 189 | 0.0 | 1.6 | 0.00 | 0.00 | 0.00 | 63 | 1019.9 |
| 20260505073657 | 15 | 141 | 0.0 | 3.2 | 0.00 | 0.00 | 0.00 | 63 | 1019.9 |
| 20260505072854 | 15 | 322 | 0.0 | 0.0 | 0.00 | 0.00 | 0.00 | 62 | 1019.7 |
| 20260505071855 | 15 | 101 | 0.0 | 1.6 | 0.00 | 0.00 | 0.00 | 61 | 1019.6 |
| 20260505070853 | 15 | 51 | 1.6 | 3.2 | 0.00 | 0.00 | 0.00 | 61 | 1019.5 |
| 20260505065853 | 16 | 86 | 0.0 | 3.2 | 0.00 | 0.00 | 0.00 | 60 | 1019.4 |
| 20260505064854 | 16 | 135 | 0.0 | 1.6 | 0.00 | 0.00 | 0.00 | 58 | 1019.3 |
| 20260505063855 | 16 | 73 | 0.0 | 1.6 | 0.00 | 0.00 | 0.00 | 58 | 1019.2 |
| 20260505062853 | 17 | 42 | 0.0 | 1.6 | 0.00 | 0.00 | 0.00 | 57 | 1019.2 |
| 20260505061855 | 17 | 19 | 0.0 | 3.2 | 0.00 | 0.00 | 0.00 | 55 | 1019.1 |
| 20260505060853 | 17 | 156 | 0.0 | 1.6 | 0.00 | 0.00 | 0.00 | 57 | 1019.1 |
| 20260505055854 | 17 | 123 | 1.6 | 3.2 | 0.00 | 0.00 | 0.00 | 58 | 1019.2 |
| 20260505054854 | 17 | 95 | 0.0 | 1.6 | 0.00 | 0.00 | 0.00 | 58 | 1018.9 |
| 20260505053853 | 17 | 46 | 0.0 | 1.6 | 0.00 | 0.00 | 0.00 | 57 | 1019.1 |
| 20260505052854 | 17 | 52 | 0.0 | 4.8 | 0.00 | 0.00 | 0.00 | 58 | 1019.1 |
| 20260505051853 | 17 | 11 | 4.8 | 8.0 | 0.00 | 0.00 | 0.00 | 56 | 1019.2 |
| 20260505050854 | 17 | 58 | 3.2 | 4.8 | 0.00 | 0.00 | 0.00 | 55 | 1019.1 |
| 20260505041656 | 17 | 77 | 1.6 | 4.8 | 0.00 | 0.00 | 0.00 | 45 | 1019.3 |
| 20260505040855 | 17 | 27 | 3.2 | 12.9 | 0.00 | 0.00 | 0.00 | 45 | 1019.2 |
| 20260505035854 | 17 | 0 | 1.6 | 3.2 | 0.00 | 0.00 | 0.00 | 45 | 1019.3 |
| 20260505035656 | 17 | 358 | 3.2 | 4.8 | 0.00 | 0.00 | 0.00 | 45 | 1019.3 |
| 20260505034854 | 17 | 191 | 1.6 | 4.8 | 0.00 | 0.00 | 0.00 | 46 | 1019.4 |
| 20260505033854 | 17 | 52 | 3.2 | 4.8 | 0.00 | 0.00 | 0.00 | 46 | 1019.2 |
| 20260505032853 | 17 | 69 | 0.0 | 3.2 | 0.00 | 0.00 | 0.00 | 47 | 1019.2 |
| 20260505031853 | 17 | 12 | 3.2 | 14.5 | 0.00 | 0.00 | 0.00 | 48 | 1019.2 |
| 20260505030855 | 17 | 7 | 8.0 | 11.3 | 0.00 | 0.00 | 0.00 | 46 | 1019.3 |
| 20260505025854 | 18 | 16 | 4.8 | 11.3 | 0.00 | 0.00 | 0.00 | 45 | 1019.2 |
| 20260505024853 | 18 | 323 | 1.6 | 1.6 | 0.00 | 0.00 | 0.00 | 42 | 1019.1 |
| 20260505023856 | 18 | 291 | 0.0 | 4.8 | 0.00 | 0.00 | 0.00 | 43 | 1019.1 |
| 20260505023658 | 18 | 6 | 1.6 | 4.8 | 0.00 | 0.00 | 0.00 | 43 | 1019.1 |
| 20260505022856 | 18 | 326 | 0.0 | 1.6 | 0.00 | 0.00 | 0.00 | 44 | 1019.0 |
| 20260505021855 | 18 | 17 | 4.8 | 11.3 | 0.00 | 0.00 | 0.00 | 43 | 1019.0 |
| 20260505020855 | 17 | 19 | 1.6 | 9.7 | 0.00 | 0.00 | 0.00 | 44 | 1019.0 |
| 20260505015856 | 18 | 333 | 3.2 | 4.8 | 0.00 | 0.00 | 0.00 | 43 | 1019.0 |
| 20260505015659 | 18 | 308 | 0.0 | 4.8 | 0.00 | 0.00 | 0.00 | 45 | 1018.9 |
| 20260505014855 | 17 | 19 | 3.2 | 4.8 | 0.00 | 0.00 | 0.00 | 48 | 1018.8 |
| 20260505013856 | 17 | 54 | 3.2 | 4.8 | 0.00 | 0.00 | 0.00 | 47 | 1018.7 |
| 20260505013658 | 18 | 7 | 1.6 | 4.8 | 0.00 | 0.00 | 0.00 | 48 | 1018.7 |
| 20260505012855 | 18 | 48 | 1.6 | 3.2 | 0.00 | 0.00 | 0.00 | 50 | 1018.5 |
| 20260505011856 | 17 | 65 | 3.2 | 4.8 | 0.00 | 0.00 | 0.00 | 50 | 1018.4 |
| 20260505010855 | 17 | 163 | 1.6 | 3.2 | 0.00 | 0.00 | 0.00 | 52 | 1018.3 |
| 20260505005855 | 17 | 12 | 1.6 | 3.2 | 0.00 | 0.00 | 0.00 | 52 | 1018.2 |
| 20260505004856 | 17 | 72 | 0.0 | 1.6 | 0.00 | 0.00 | 0.00 | 54 | 1018.2 |
| 20260505003855 | 17 | 50 | 1.6 | 3.2 | 0.00 | 0.00 | 0.00 | 53 | 1018.1 |
| 20260505002856 | 17 | 80 | 0.0 | 3.2 | 0.00 | 0.00 | 0.00 | 55 | 1018.1 |
| 20260505001854 | 17 | 81 | 1.6 | 3.2 | 0.00 | 0.00 | 0.00 | 55 | 1017.8 |
| 20260505000855 | 17 | 65 | 0.0 | 4.8 | 0.00 | 0.00 | 0.00 | 56 | 1017.8 |
| 20260504235856 | 17 | 75 | 0.0 | 0.0 | 0.00 | 0.00 | 0.00 | 58 | 1017.8 |
| 20260504235658 | 16 | 71 | 0.0 | 4.8 | 0.00 | 0.00 | 0.00 | 59 | 1017.8 |
| 20260504234856 | 16 | 19 | 1.6 | 3.2 | 0.00 | 0.00 | 0.00 | 59 | 1017.8 |
| 20260504233855 | 16 | 86 | 0.0 | 3.2 | 0.00 | 0.00 | 0.00 | 59 | 1017.8 |
| 20260504232856 | 15 | 34 | 0.0 | 3.2 | 0.00 | 0.00 | 0.00 | 58 | 1017.8 |
| 20260504231855 | 16 | 42 | 1.6 | 4.8 | 0.00 | 0.00 | 0.00 | 57 | 1017.8 |
| 20260504230855 | 16 | 349 | 1.6 | 4.8 | 0.00 | 0.00 | 0.00 | 59 | 1017.7 |
| 20260504225855 | 16 | 98 | 0.0 | 3.2 | 0.00 | 0.00 | 0.00 | 62 | 1017.7 |
| 20260504224856 | 16 | 39 | 1.6 | 1.6 | 0.00 | 0.00 | 0.00 | 63 | 1017.5 |
| 20260504223855 | 17 | 54 | 0.0 | 1.6 | 0.00 | 0.00 | 0.00 | 61 | 1017.4 |
| 20260504223659 | 17 | 21 | 1.6 | 1.6 | 0.00 | 0.00 | 0.00 | 60 | 1017.3 |
| 20260504222855 | 17 | 133 | 0.0 | 0.0 | 0.00 | 0.00 | 0.00 | 58 | 1017.0 |
| 20260504221855 | 16 | 209 | 0.0 | 0.0 | 0.00 | 0.00 | 0.00 | 61 | 1016.8 |
| 20260504220855 | 16 | 176 | 0.0 | 0.0 | 0.00 | 0.00 | 0.00 | 62 | 1016.6 |
| 20260504215856 | 15 | 154 | 0.0 | 0.0 | 0.00 | 0.00 | 0.00 | 63 | 1016.5 |
| 20260504215658 | 15 | 154 | 0.0 | 0.0 | 0.00 | 0.00 | 0.00 | 63 | 1016.5 |
| 20260504214856 | 14 | 238 | 0.0 | 1.6 | 0.00 | 0.00 | 0.00 | 68 | 1016.5 |
| 20260504213856 | 13 | 238 | 0.0 | 0.0 | 0.00 | 0.00 | 0.00 | 72 | 1016.3 |
| 20260504213658 | 13 | 238 | 0.0 | 1.6 | 0.00 | 0.00 | 0.00 | 72 | 1016.3 |
| 20260504212856 | 13 | 272 | 0.0 | 1.6 | 0.00 | 0.00 | 0.00 | 72 | 1016.2 |
| 20260504211854 | 13 | 270 | 0.0 | 1.6 | 0.00 | 0.03 | 0.00 | 72 | 1015.9 |
| 20260504210856 | 13 | 286 | 0.0 | 0.0 | 0.00 | 0.05 | 0.00 | 73 | 1015.7 |
| 20260504205855 | 12 | 283 | 0.0 | 0.0 | 0.00 | 0.08 | 0.00 | 78 | 1015.5 |
| 20260504205659 | 12 | 283 | 0.0 | 0.0 | 0.00 | 0.08 | 0.00 | 78 | 1015.5 |
| 20260504204855 | 12 | 283 | 0.0 | 0.0 | 0.00 | 0.08 | 0.00 | 79 | 1015.2 |
| 20260504203855 | 10 | 283 | 0.0 | 0.0 | 0.00 | 0.10 | 0.00 | 84 | 1014.9 |
| 20260504203657 | 10 | 283 | 0.0 | 1.6 | 0.00 | 0.10 | 0.00 | 84 | 1014.8 |
| 20260504202855 | 9 | 283 | 0.0 | 0.0 | 0.00 | 0.13 | 0.00 | 83 | 1014.8 |
| 20260504201855 | 9 | 283 | 0.0 | 1.6 | 0.00 | 0.15 | 0.00 | 83 | 1014.5 |
| 20260504200856 | 9 | 264 | 0.0 | 1.6 | 0.00 | 0.20 | 0.00 | 83 | 1014.4 |
| 20260504195856 | 9 | 264 | 0.0 | 1.6 | 0.00 | 0.33 | 0.00 | 82 | 1014.1 |
| 20260504195658 | 9 | 264 | 0.0 | 1.6 | 0.00 | 0.36 | 0.00 | 82 | 1014.0 |
| 20260504194856 | 9 | 278 | 0.0 | 1.6 | 0.00 | 0.48 | 0.00 | 82 | 1013.7 |
| 20260504193856 | 9 | 279 | 0.0 | 1.6 | 0.00 | 0.66 | 0.00 | 82 | 1013.5 |
| 20260504193658 | 9 | 279 | 0.0 | 0.0 | 0.00 | 0.69 | 0.00 | 82 | 1013.4 |
| 20260504192854 | 9 | 279 | 0.0 | 1.6 | 0.00 | 0.79 | 0.00 | 82 | 1013.1 |
| 20260504191855 | 9 | 304 | 0.0 | 1.6 | 0.00 | 0.81 | 0.00 | 81 | 1013.0 |
| 20260504191657 | 9 | 311 | 0.0 | 0.0 | 0.00 | 0.81 | 0.00 | 82 | 1013.1 |
| 20260504190856 | 9 | 329 | 0.0 | 0.0 | 0.00 | 0.81 | 0.00 | 82 | 1012.7 |
| 20260504185856 | 9 | 352 | 0.0 | 1.6 | 0.00 | 0.86 | 0.00 | 82 | 1012.4 |
| 20260504185659 | 9 | 352 | 0.0 | 1.6 | 0.00 | 0.86 | 0.00 | 82 | 1012.3 |
| 20260504184855 | 9 | 23 | 0.0 | 1.6 | 0.00 | 0.89 | 0.00 | 81 | 1012.1 |
| 20260504183855 | 10 | 26 | 0.0 | 0.0 | 0.00 | 0.89 | 0.00 | 79 | 1011.8 |
| 20260504183657 | 10 | 26 | 0.0 | 0.0 | 0.00 | 0.91 | 0.00 | 78 | 1011.8 |
| 20260504182855 | 10 | 26 | 0.0 | 0.0 | 0.00 | 0.91 | 0.00 | 77 | 1011.6 |
| 20260504181855 | 10 | 318 | 0.0 | 0.0 | 0.00 | 0.94 | 0.00 | 77 | 1011.3 |
| 20260504181657 | 11 | 343 | 0.0 | 1.6 | 0.00 | 0.94 | 0.00 | 77 | 1011.2 |
| 20260504180855 | 11 | 347 | 0.0 | 0.0 | 0.00 | 0.94 | 0.00 | 75 | 1011.0 |
| 20260504175856 | 11 | 323 | 0.0 | 0.0 | 0.00 | 0.99 | 0.00 | 75 | 1011.0 |
| 20260504175658 | 11 | 323 | 1.6 | 4.8 | 0.00 | 1.02 | 0.00 | 75 | 1011.0 |
| 20260504174854 | 11 | 41 | 0.0 | 4.8 | 0.00 | 1.04 | 0.00 | 76 | 1010.7 |
| 20260504173855 | 11 | 345 | 1.6 | 3.2 | 0.00 | 1.07 | 0.00 | 77 | 1010.5 |
| 20260504173657 | 11 | 341 | 1.6 | 4.8 | 0.00 | 1.07 | 0.00 | 77 | 1010.5 |
| 20260504172856 | 11 | 85 | 0.0 | 1.6 | 0.00 | 1.09 | 0.00 | 77 | 1010.1 |
| 20260504171855 | 12 | 354 | 0.0 | 0.0 | 0.00 | 1.12 | 0.00 | 77 | 1009.9 |
| 20260504171659 | 12 | 11 | 0.0 | 1.6 | 0.00 | 1.12 | 0.00 | 76 | 1009.8 |
| 20260504170855 | 11 | 329 | 0.0 | 1.6 | 0.00 | 1.14 | 0.00 | 77 | 1009.7 |
| 20260504150855 | 11 | 257 | 0.0 | 1.6 | 0.00 | 2.11 | 0.00 | 73 | 1007.4 |
| 20260504140855 | 12 | 187 | 0.0 | 4.8 | 0.00 | 2.24 | 2.16 | 68 | 1005.9 |